sat.trackr.live / text

‹ back to catalog

STARLINK-32415

NORAD 61861 · 2024-202S

PAYLOAD ACTIVE UNKNOWN

§ Identity

Operator
Country
US
Launch date
2024-11-07
Launch site
AFETR
Launch vehicle
Mass (kg)
RCS (m²)

Purposes: comms

External: N2YO · Heavens-Above · Gunter

§ Orbital elements

Epoch: 2026-05-25T01:02:48.414624Z

Period
94.27 min
Inclination
43.0017°
Eccentricity
0.0001165
Mean motion
15.27576542 rev/d
Perigee alt
482.3 km
Apogee alt
483.9 km
Semi-major
6,861.2 km
B*
-2.8196e-5
RAAN
166.9014°
Arg perigee
303.0799°
Mean anomaly
56.9940°
Rev number
8,700

§ Raw data

STARLINK-324151 61861U 24202S   26145.04361591 -.00001038  00000+0 -28196-4 0  99922 61861  43.0017 166.9014 0001165 303.0799  56.9940 15.27576542 87002

JSON: /api/v1/satellites/61861 · /tle

For live sub-satellite position, see the globe view (requires WebGL).

§ Visibility from observer

Set your observer location to see the next 7 days of passes ≥ 10°. The values pass through the URL so the page stays shareable.

No JS? Fill the form by hand. The geolocation button needs JavaScript.